QPF
0.00 0.00 0.00 0.00 0.00 0.00 0.00 0.00 0.00 0.00 0.00 0.00 0.00 0.00 0.00 0.00 0.00 0.00 0.00 0.00 0.00 0.00 0.00 0.00 0.00 0.00 0.02 0.01 0.00 0.00 0.00 0.00 0.00 0.00 0.00 0.00 0.00 0.00 0.00 0.00 0.00 0.00 0.00 0.00 0.00
0.00 0.00 0.00 0.00 0.00 0.00 0.00 0.00 0.00 0.00 0.00 0.00 0.00 0.00 0.00 0.00 0.00 0.00 0.00 0.00 0.00 0.00 0.00 0.00 0.00 0.00 0.01 0.01 0.01 0.00 0.00 0.00 0.00 0.00 0.00 0.00 0.00 0.00 0.00 0.00 0.00 0.00 0.00 0.00 0.00
0.00 0.00 0.00 0.00 0.00 0.00 0.00 0.00 0.00 0.00 0.00 0.00 0.00 0.00 0.00 0.00 0.00 0.00 0.00 0.00 0.00 0.00 0.00 0.00 0.00 0.01 0.01 0.01 0.01 0.00 0.00 0.00 0.00 0.00 0.00 0.00 0.00 0.00 0.00 0.00 0.00 0.00 0.00 0.00 0.00
0.00 0.00 0.00 0.00 0.00 0.00 0.00 0.00 0.00 0.00 0.00 0.00 0.00 0.00 0.00 0.00 0.00 0.00 0.00 0.00 0.00 0.00 0.02 0.03 0.01 0.02 0.00 0.01 0.00 0.00 0.00 0.00 0.00 0.00 0.00 0.00 0.00 0.00 0.00 0.00 0.00 0.00 0.00 0.00 0.00
0.00 0.00 0.00 0.00 0.00 0.00 0.00 0.00 0.00 0.00 0.00 0.00 0.00 0.00 0.00 0.00 0.00 0.00 0.00 0.00 0.00 0.00 0.04 0.05 0.03 0.02 0.01 0.00 0.00 0.00 0.00 0.00 0.00 0.00 0.00 0.00 0.00 0.00 0.00 0.00 0.00 0.00 0.00 0.00 0.00
0.00 0.00 0.00 0.00 0.00 0.00 0.00 0.00 0.00 0.00 0.00 0.00 0.00 0.00 0.00 0.00 0.00 0.00 0.00 0.00 0.00 0.00 0.02 0.06 0.06 0.01 0.01 0.01 0.00 0.00 0.01 0.01 0.00 0.00 0.00 0.00 0.00 0.00 0.00 0.00 0.00 0.00 0.00 0.00 0.00
0.00 0.00 0.00 0.00 0.00 0.00 0.00 0.00 0.00 0.00 0.00 0.00 0.00 0.00 0.00 0.00 0.00 0.00 0.00 0.00 0.00 0.00 0.00 0.03 0.07 0.07 0.02 0.03 0.01 0.01 0.02 0.02 0.01 0.00 0.00 0.00 0.00 0.00 0.00 0.00 0.00 0.00 0.00 0.00 0.00
0.00 0.00 0.00 0.00 0.00 0.00 0.00 0.00 0.00 0.00 0.00 0.00 0.00 0.00 0.02 0.00 0.00 0.00 0.00 0.00 0.00 0.00 0.00 0.00 0.03 0.11 0.05 0.04 0.03 0.02 0.03 0.09 0.02 0.01 0.01 0.01 0.00 0.00 0.00 0.00 0.00 0.00 0.00 0.00 0.00
0.00 0.00 0.00 0.00 0.00 0.00 0.00 0.00 0.00 0.00 0.00 0.00 0.00 0.01 0.02 0.00 0.00 0.00 0.00 0.00 0.00 0.00 0.00 0.00 0.01 0.12 0.18 0.06 0.13 0.16 0.03 0.01 0.01 0.02 0.04 0.02 0.00 0.00 0.00 0.00 0.00 0.00 0.00 0.00 0.00
0.00 0.00 0.00 0.00 0.00 0.00 0.00 0.00 0.00 0.00 0.00 0.00 0.00 0.01 0.00 0.00 0.00 0.00 0.00 0.00 0.00 0.00 0.01 0.01 0.02 0.01 0.13 0.20 0.15 0.19 0.12 0.01 0.00 0.02 0.06 0.01 0.00 0.00 0.00 0.00 0.00 0.00 0.00 0.00 0.00
0.00 0.00 0.00 0.00 0.00 0.00 0.00 0.00 0.00 0.00 0.00 0.00 0.00 0.00 0.00 0.00 0.00 0.00 0.00 0.00 0.00 0.00 0.01 0.05 0.16 0.05 0.02 0.12 0.14 0.04 0.04 0.09 0.04 0.00 0.02 0.01 0.00 0.00 0.00 0.00 0.00 0.00 0.00 0.00 0.00
0.00 0.00 0.00 0.00 0.00 0.00 0.00 0.00 0.00 0.00 0.00 0.00 0.00 0.00 0.00 0.00 0.00 0.00 0.00 0.00 0.00 0.00 0.00 0.01 0.07 0.03 0.00 0.04 0.13 0.11 0.11 0.03 0.05 0.07 0.01 0.00 0.00 0.01 0.00 0.00 0.00 0.00 0.00 0.00 0.00
0.00 0.00 0.00 0.00 0.00 0.00 0.00 0.00 0.00 0.00 0.00 0.00 0.00 0.00 0.00 0.00 0.00 0.00 0.00 0.00 0.00 0.00 0.00 0.01 0.00 0.00 0.04 0.04 0.18 0.20 0.13 0.11 0.04 0.06 0.10 0.02 0.03 0.01 0.00 0.00 0.00 0.00 0.00 0.00 0.00
0.00 0.00 0.00 0.00 0.00 0.00 0.00 0.00 0.00 0.00 0.00 0.00 0.00 0.00 0.00 0.00 0.00 0.00 0.00 0.00 0.00 0.00 0.00 0.01 0.01 0.00 0.01 0.02 0.08 0.17 0.08 0.05 0.11 0.16 0.18 0.11 0.12 0.07 0.02 0.00 0.00 0.00 0.00 0.00 0.00
0.00 0.00 0.00 0.00 0.00 0.00 0.00 0.00 0.00 0.00 0.00 0.00 0.00 0.00 0.00 0.00 0.00 0.00 0.00 0.00 0.00 0.01 0.05 0.04 0.09 0.07 0.02 0.01 0.05 0.08 0.02 0.02 0.14 0.20 0.25 0.12 0.07 0.03 0.04 0.04 0.01 0.00 0.00 0.00 0.00
0.00 0.00 0.00 0.00 0.00 0.00 0.00 0.00 0.00 0.00 0.00 0.00 0.00 0.00 0.00 0.00 0.00 0.00 0.00 0.00 0.00 0.00 0.02 0.05 0.11 0.12 0.08 0.02 0.04 0.09 0.06 0.05 0.08 0.22 0.31 0.15 0.07 0.02 0.05 0.06 0.00 0.00 0.00 0.00 0.00
0.00 0.00 0.00 0.00 0.00 0.00 0.00 0.00 0.00 0.00 0.00 0.00 0.00 0.00 0.00 0.00 0.00 0.00 0.00 0.00 0.01 0.03 0.02 0.00 0.00 0.01 0.01 0.01 0.09 0.04 0.15 0.17 0.23 0.20 0.17 0.07 0.11 0.02 0.01 0.01 0.01 0.00 0.00 0.00 0.00
0.00 0.00 0.00 0.00 0.00 0.00 0.00 0.00 0.00 0.00 0.00 0.00 0.00 0.00 0.00 0.00 0.00 0.00 0.00 0.00 0.00 0.01 0.03 0.02 0.02 0.05 0.04 0.06 0.10 0.06 0.14 0.26 0.19 0.06 0.05 0.08 0.16 0.08 0.01 0.01 0.01 0.00 0.01 0.01 0.00
0.00 0.00 0.00 0.00 0.00 0.00 0.00 0.00 0.01 0.00 0.00 0.00 0.00 0.00 0.00 0.00 0.00 0.00 0.00 0.00 0.00 0.00 0.04 0.04 0.02 0.02 0.03 0.05 0.05 0.07 0.06 0.12 0.22 0.12 0.02 0.16 0.13 0.07 0.04 0.01 0.00 0.00 0.01 0.01 0.01
0.00 0.00 0.00 0.00 0.00 0.00 0.00 0.00 0.00 0.00 0.00 0.00 0.00 0.00 0.00 0.00 0.00 0.00 0.00 0.00 0.00 0.00 0.01 0.04 0.03 0.02 0.01 0.00 0.00 0.01 0.02 0.03 0.07 0.20 0.11 0.11 0.09 0.05 0.04 0.02 0.01 0.00 0.00 0.01 0.01
0.00 0.00 0.00 0.00 0.00 0.00 0.00 0.00 0.00 0.00 0.00 0.00 0.00 0.00 0.00 0.00 0.00 0.00 0.00 0.00 0.00 0.00 0.00 0.00 0.01 0.01 0.01 0.02 0.04 0.02 0.01 0.01 0.04 0.07 0.09 0.10 0.11 0.08 0.05 0.03 0.02 0.01 0.00 0.00 0.00
0.00 0.00 0.00 0.00 0.00 0.00 0.00 0.00 0.00 0.00 0.00 0.00 0.00 0.00 0.00 0.00 0.00 0.00 0.00 0.00 0.00 0.00 0.00 0.00 0.00 0.00 0.01 0.00 0.00 0.02 0.04 0.02 0.01 0.02 0.02 0.02 0.04 0.07 0.09 0.08 0.06 0.04 0.03 0.02 0.01
0.00 0.00 0.00 0.00 0.00 0.00 0.00 0.00 0.00 0.00 0.00 0.00 0.00 0.00 0.00 0.00 0.00 0.00 0.00 0.00 0.00 0.00 0.00 0.00 0.00 0.00 0.00 0.00 0.00 0.01 0.05 0.04 0.02 0.01 0.00 0.00 0.01 0.05 0.03 0.05 0.08 0.07 0.06 0.04 0.03
0.00 0.00 0.00 0.00 0.00 0.00 0.00 0.00 0.00 0.00 0.00 0.00 0.00 0.00 0.00 0.00 0.00 0.00 0.00 0.00 0.00 0.00 0.00 0.00 0.00 0.00 0.00 0.02 0.02 0.03 0.04 0.04 0.01 0.01 0.01 0.01 0.02 0.03 0.03 0.03 0.03 0.06 0.07 0.06 0.05
0.00 0.00 0.00 0.00 0.00 0.00 0.00 0.00 0.00 0.00 0.00 0.00 0.00 0.00 0.00 0.00 0.00 0.00 0.00 0.00 0.00 0.00 0.00 0.00 0.00 0.00 0.00 0.00 0.00 0.01 0.04 0.04 0.05 0.05 0.02 0.03 0.03 0.03 0.03 0.03 0.03 0.02 0.02 0.02 0.02
0.00 0.00 0.00 0.00 0.00 0.00 0.00 0.00 0.00 0.00 0.00 0.00 0.00 0.00 0.00 0.00 0.00 0.00 0.01 0.00 0.00 0.00 0.00 0.00 0.00 0.00 0.00 0.00 0.00 0.00 0.01 0.02 0.03 0.05 0.06 0.05 0.06 0.06 0.04 0.03 0.04 0.04 0.02 0.02 0.02
0.00 0.00 0.00 0.00 0.00 0.00 0.00 0.00 0.00 0.00 0.00 0.00 0.00 0.00 0.00 0.00 0.00 0.00 0.00 0.00 0.00 0.01 0.00 0.00 0.00 0.00 0.00 0.00 0.00 0.00 0.03 0.04 0.05 0.06 0.05 0.07 0.09 0.05 0.04 0.04 0.04 0.05 0.05 0.03 0.03
MSLP
1018.87 1018.41 1017.99 1017.56 1017.12 1016.56 1016.05 1015.58 1015.10 1014.60 1014.12 1013.68 1013.21 1012.97 1012.73 1012.49 1012.35 1012.25 1011.51 1010.83 1010.48 1010.47 1010.49 1010.59 1011.00 1011.34 1011.34 1011.30 1011.63 1011.72 1011.13 1009.55 1009.81 1010.06 1009.19 1008.47 1008.75 1008.42 1008.05 1008.50 1008.61 1008.79 1008.82 1008.72 1009.57
1018.93 1018.44 1017.95 1017.46 1016.91 1016.38 1015.81 1015.27 1014.77 1014.26 1013.77 1013.35 1012.90 1012.54 1012.26 1012.21 1012.06 1011.46 1010.15 1010.00 1009.91 1009.82 1010.10 1010.38 1010.63 1011.09 1010.88 1010.67 1010.82 1010.51 1009.22 1007.95 1008.59 1008.76 1008.30 1008.13 1008.15 1007.90 1008.02 1008.43 1009.03 1009.22 1008.96 1008.94 1009.65
1018.86 1018.34 1017.79 1017.24 1016.70 1016.09 1015.43 1014.82 1014.29 1013.81 1013.35 1012.94 1012.56 1012.22 1011.91 1011.77 1011.68 1010.30 1008.67 1009.09 1009.08 1009.01 1009.08 1009.77 1010.44 1010.60 1010.49 1009.95 1009.42 1008.96 1006.04 1008.09 1007.94 1007.97 1008.04 1008.02 1007.90 1007.71 1007.83 1008.27 1008.58 1008.86 1009.21 1009.31 1009.68
1018.84 1018.32 1017.77 1017.19 1016.53 1015.84 1015.10 1014.37 1013.79 1013.23 1012.78 1012.33 1011.85 1011.79 1011.53 1011.57 1011.34 1009.59 1009.80 1009.32 1008.78 1007.90 1008.63 1009.05 1009.64 1009.69 1009.34 1008.36 1008.29 1007.95 1007.70 1007.79 1007.92 1007.69 1007.68 1007.83 1007.70 1007.68 1007.55 1007.46 1007.31 1007.74 1007.88 1008.91 1009.76
1018.84 1018.24 1017.60 1016.90 1016.13 1015.42 1014.74 1013.88 1013.22 1012.63 1012.13 1011.70 1011.46 1011.42 1011.54 1011.69 1011.46 1010.58 1009.97 1009.51 1008.77 1008.35 1007.56 1007.88 1008.25 1008.70 1007.80 1007.98 1008.60 1006.62 1007.09 1007.67 1007.84 1007.56 1007.37 1007.74 1007.61 1007.56 1007.44 1007.28 1007.48 1007.82 1008.26 1008.55 1009.13
1018.85 1018.29 1017.69 1017.03 1016.28 1015.34 1014.50 1013.66 1013.02 1012.33 1011.65 1011.28 1010.96 1011.19 1011.64 1011.97 1011.53 1010.76 1010.27 1009.43 1009.03 1008.41 1007.85 1007.43 1007.41 1007.71 1007.85 1007.42 1007.25 1006.22 1007.30 1007.27 1007.47 1007.25 1007.28 1007.40 1007.65 1007.85 1007.21 1007.33 1008.01 1008.33 1008.39 1008.69 1008.97
1018.98 1018.36 1017.72 1017.07 1016.32 1015.46 1014.62 1013.52 1012.83 1012.23 1011.58 1010.79 1010.24 1010.66 1011.50 1011.64 1010.46 1010.13 1009.56 1009.15 1008.73 1008.69 1008.28 1007.37 1007.18 1007.17 1007.17 1007.17 1006.87 1006.84 1007.03 1007.06 1006.63 1006.99 1006.82 1007.68 1007.46 1006.46 1007.24 1007.46 1008.18 1008.66 1008.32 1008.82 1009.14
1018.89 1018.22 1017.56 1017.00 1016.25 1015.35 1014.57 1013.32 1012.67 1011.77 1011.19 1010.83 1010.44 1010.87 1011.52 1010.45 1010.19 1010.12 1009.34 1008.76 1008.44 1007.92 1008.05 1007.83 1007.15 1006.95 1006.53 1006.63 1006.46 1006.93 1007.30 1006.11 1005.40 1006.52 1006.45 1007.50 1004.22 1006.48 1006.81 1007.48 1008.46 1008.54 1008.72 1009.03 1009.62
1018.87 1018.13 1017.34 1016.73 1016.10 1015.25 1014.46 1013.22 1012.46 1011.54 1010.92 1010.66 1011.06 1011.19 1011.02 1010.03 1009.92 1009.53 1009.44 1008.62 1008.00 1007.48 1007.28 1007.62 1007.18 1006.75 1006.80 1006.36 1006.53 1006.13 1004.78 1005.09 1005.62 1005.38 1006.22 1006.32 1004.96 1005.71 1006.32 1007.27 1007.97 1008.77 1008.75 1009.05 1009.65
1018.99 1018.05 1017.25 1016.38 1015.93 1015.21 1014.54 1013.43 1012.59 1012.02 1011.20 1010.85 1011.26 1011.82 1011.00 1010.46 1009.89 1009.61 1009.03 1008.36 1007.88 1007.48 1007.36 1007.82 1007.11 1006.74 1006.31 1005.60 1004.31 1004.69 1004.99 1004.73 1004.32 1004.81 1005.41 1005.51 1005.14 1005.28 1006.06 1006.88 1007.54 1008.25 1008.48 1008.98 1009.49
1018.94 1018.04 1017.15 1016.38 1015.70 1015.15 1014.90 1014.28 1014.31 1013.68 1013.51 1013.60 1013.36 1012.86 1012.14 1010.88 1009.71 1009.73 1009.22 1008.54 1007.98 1007.78 1007.62 1007.57 1007.05 1006.00 1005.16 1005.40 1005.42 1005.83 1005.17 1004.50 1004.18 1004.29 1004.91 1004.49 1005.29 1005.43 1005.70 1006.65 1007.20 1007.86 1008.48 1008.76 1009.05
1018.88 1018.12 1017.18 1016.21 1015.45 1015.18 1015.22 1015.66 1015.70 1015.77 1015.13 1013.90 1013.44 1012.79 1011.96 1011.15 1010.49 1010.14 1009.78 1009.43 1008.76 1008.69 1008.35 1008.17 1006.90 1006.47 1006.16 1005.72 1005.84 1005.62 1005.32 1004.97 1004.91 1004.47 1004.57 1004.70 1004.58 1005.14 1005.57 1005.97 1006.73 1007.46 1008.21 1008.62 1009.26
1018.93 1018.08 1017.12 1016.02 1015.34 1015.39 1015.63 1015.77 1015.32 1015.70 1015.80 1014.72 1014.11 1013.28 1012.76 1011.88 1011.27 1011.14 1010.56 1009.79 1009.62 1009.45 1009.12 1008.78 1006.95 1006.69 1006.63 1006.48 1006.29 1006.12 1005.42 1005.00 1004.54 1004.74 1004.92 1004.82 1004.86 1005.18 1005.58 1005.79 1006.66 1007.00 1007.56 1008.42 1008.71
1019.04 1018.06 1017.15 1016.05 1015.72 1015.90 1015.61 1015.43 1015.23 1015.57 1016.05 1015.82 1014.55 1013.69 1013.15 1012.22 1012.17 1011.78 1011.06 1010.88 1010.36 1010.11 1009.67 1008.76 1007.84 1006.99 1006.61 1006.61 1006.67 1005.84 1005.50 1005.41 1004.90 1004.70 1004.30 1004.61 1003.80 1004.59 1005.12 1005.74 1006.46 1007.40 1007.71 1008.21 1008.82
1019.30 1018.40 1017.37 1016.64 1016.93 1016.46 1016.09 1015.23 1015.40 1015.89 1017.12 1017.20 1015.76 1014.69 1014.27 1013.99 1013.74 1012.50 1012.16 1010.96 1011.11 1010.94 1010.79 1009.68 1008.60 1007.61 1006.58 1006.25 1006.35 1005.77 1004.86 1005.00 1004.95 1004.56 1004.18 1004.15 1004.64 1004.39 1005.29 1006.51 1007.16 1008.04 1008.03 1008.22 1008.70
1019.52 1018.71 1017.92 1016.95 1016.89 1016.64 1015.78 1015.40 1016.06 1017.48 1019.12 1018.25 1017.49 1016.32 1015.26 1014.62 1014.19 1013.59 1013.17 1012.15 1011.48 1011.12 1010.69 1010.20 1009.36 1008.44 1007.77 1006.57 1006.23 1006.16 1005.33 1005.16 1005.24 1004.47 1003.68 1003.77 1004.98 1006.41 1006.39 1006.70 1008.03 1008.52 1008.91 1008.99 1009.41
1019.70 1019.11 1018.32 1017.97 1018.26 1016.53 1016.18 1016.68 1018.19 1019.85 1021.05 1019.90 1018.56 1017.78 1017.07 1016.57 1015.34 1015.05 1014.89 1013.93 1013.80 1012.84 1011.81 1010.49 1009.73 1009.15 1008.55 1007.23 1006.32 1006.16 1005.72 1004.81 1005.19 1003.86 1003.35 1004.39 1006.32 1008.47 1009.24 1009.40 1008.82 1009.20 1010.11 1010.51 1010.70
1020.02 1019.61 1019.22 1018.82 1018.14 1017.37 1017.05 1018.32 1020.19 1022.28 1021.97 1021.15 1020.24 1019.22 1018.63 1018.27 1017.29 1016.67 1016.24 1015.99 1015.07 1014.89 1013.73 1012.82 1011.60 1010.91 1010.38 1009.48 1007.91 1006.66 1005.70 1004.48 1004.27 1003.90 1004.60 1005.53 1007.43 1010.18 1010.96 1010.92 1010.40 1011.13 1011.54 1011.59 1011.93
1020.14 1020.28 1019.98 1019.75 1018.90 1018.24 1019.10 1020.22 1023.53 1023.41 1022.94 1022.01 1020.87 1020.46 1020.21 1019.82 1019.75 1018.57 1018.35 1017.77 1016.93 1016.04 1015.64 1014.28 1013.27 1012.36 1011.01 1010.19 1009.31 1007.76 1006.81 1006.48 1005.90 1005.18 1005.72 1007.98 1010.49 1011.88 1011.66 1012.19 1011.92 1012.75 1012.91 1013.01 1013.37
1021.38 1021.28 1020.93 1020.39 1019.85 1019.94 1020.84 1022.60 1023.87 1023.81 1023.22 1022.72 1022.64 1022.42 1022.37 1021.69 1021.11 1020.42 1019.83 1018.83 1017.74 1016.99 1016.10 1015.50 1014.46 1013.23 1012.03 1010.62 1009.72 1009.14 1008.64 1007.86 1006.86 1007.25 1007.57 1009.90 1011.67 1012.94 1013.47 1013.61 1013.60 1014.04 1013.91 1014.26 1014.65
1022.14 1022.57 1021.76 1020.81 1020.76 1021.70 1023.18 1024.30 1024.21 1023.98 1023.68 1023.52 1023.69 1023.68 1023.76 1023.62 1022.84 1022.22 1021.50 1019.88 1018.82 1017.21 1016.46 1015.93 1015.63 1014.34 1013.13 1012.81 1012.31 1010.71 1010.45 1009.82 1009.05 1008.52 1009.05 1010.80 1013.37 1014.33 1014.81 1014.58 1014.58 1015.05 1014.95 1015.33 1015.71
1023.35 1023.92 1022.44 1021.80 1022.23 1024.01 1025.06 1025.43 1024.94 1024.49 1024.17 1024.08 1024.36 1024.46 1024.67 1024.36 1023.89 1023.24 1022.48 1021.24 1019.76 1018.83 1017.36 1016.28 1015.98 1015.65 1014.74 1014.11 1013.71 1013.49 1013.06 1011.79 1010.99 1010.86 1011.07 1012.18 1014.73 1014.84 1014.92 1015.03 1015.31 1015.96 1016.16 1016.59 1016.93
1024.83 1024.68 1023.49 1023.14 1025.02 1026.22 1026.44 1026.25 1025.64 1025.13 1024.99 1024.82 1025.04 1025.39 1025.36 1025.34 1025.04 1024.41 1023.10 1021.42 1020.48 1019.46 1018.64 1017.57 1017.40 1016.97 1015.76 1014.58 1013.99 1013.53 1013.71 1012.61 1011.78 1011.66 1013.02 1013.53 1015.73 1015.72 1015.72 1015.94 1016.41 1016.54 1017.21 1017.74 1018.07
1025.58 1026.10 1025.68 1026.02 1027.13 1027.47 1027.41 1027.13 1026.57 1025.87 1025.86 1025.84 1026.01 1025.88 1026.05 1026.03 1025.82 1025.34 1024.06 1022.32 1021.39 1020.62 1019.40 1018.82 1019.53 1019.60 1019.17 1018.82 1017.74 1016.31 1015.46 1014.50 1012.82 1013.66 1014.69 1015.19 1015.77 1016.50 1016.72 1016.98 1017.24 1017.54 1017.79 1018.39 1018.79
1026.70 1028.29 1028.41 1028.33 1027.98 1028.22 1028.09 1027.92 1027.51 1026.98 1026.51 1026.40 1026.44 1026.86 1027.33 1027.34 1026.62 1026.05 1025.02 1023.61 1022.18 1021.81 1021.37 1021.39 1021.81 1021.05 1020.01 1019.09 1018.40 1018.45 1017.34 1016.10 1015.20 1015.70 1015.74 1016.78 1016.77 1017.31 1017.50 1017.73 1018.07 1018.36 1018.25 1018.68 1018.93
1027.68 1028.45 1028.97 1029.19 1028.88 1028.87 1028.97 1028.68 1028.20 1027.77 1027.53 1027.12 1027.54 1027.15 1027.32 1027.71 1027.46 1026.86 1026.43 1025.29 1024.63 1023.30 1023.21 1023.15 1023.28 1022.65 1021.62 1020.47 1019.62 1019.42 1019.35 1018.37 1017.99 1017.92 1018.08 1018.11 1017.99 1017.92 1018.02 1018.22 1018.51 1018.73 1019.06 1019.66 1020.29
1028.08 1028.45 1029.19 1029.78 1029.72 1029.80 1029.86 1029.37 1028.76 1028.48 1027.75 1027.48 1027.62 1027.66 1027.26 1026.62 1026.35 1025.93 1025.90 1025.61 1025.43 1025.66 1025.22 1025.17 1025.14 1024.62 1023.56 1021.85 1020.60 1020.67 1021.29 1020.72 1020.82 1020.76 1020.41 1019.70 1019.32 1019.17 1019.16 1019.17 1019.23 1019.33 1019.51 1019.93 1020.22
Thickness
5611 5612 5613 5613 5613 5614 5613 5613 5612 5611 5611 5611 5610 5608 5606 5604 5602 5603 5608 5610 5611 5608 5609 5607 5603 5602 5603 5600 5601 5605 5603 5617 5619 5620 5647 5663 5653 5661 5671 5669 5676 5678 5682 5694 5687
5609 5610 5610 5610 5610 5609 5608 5607 5606 5604 5603 5602 5600 5598 5596 5593 5591 5592 5601 5601 5601 5598 5596 5594 5591 5588 5589 5594 5591 5594 5608 5625 5630 5637 5647 5654 5647 5654 5657 5654 5656 5661 5676 5682 5680
5608 5608 5608 5608 5607 5605 5604 5602 5599 5596 5592 5590 5587 5585 5583 5578 5574 5580 5594 5588 5587 5587 5587 5581 5576 5575 5575 5586 5590 5596 5621 5620 5627 5635 5641 5641 5640 5648 5646 5639 5645 5654 5662 5672 5675
5607 5607 5606 5605 5603 5601 5599 5597 5592 5588 5583 5579 5575 5569 5564 5559 5550 5564 5564 5569 5571 5577 5571 5567 5563 5562 5571 5581 5593 5589 5601 5608 5614 5625 5628 5628 5640 5635 5637 5647 5656 5659 5670 5667 5667
5604 5603 5602 5600 5597 5594 5590 5587 5583 5577 5571 5564 5556 5547 5537 5527 5524 5525 5530 5532 5542 5550 5561 5557 5553 5554 5566 5571 5569 5590 5593 5595 5599 5614 5619 5621 5622 5626 5632 5644 5647 5647 5654 5662 5664
5598 5596 5593 5590 5587 5583 5577 5572 5566 5559 5551 5541 5530 5515 5499 5483 5488 5491 5494 5497 5504 5515 5526 5536 5541 5542 5545 5556 5558 5585 5573 5580 5586 5600 5606 5610 5612 5613 5626 5633 5629 5635 5642 5651 5655
5589 5585 5582 5577 5573 5566 5558 5551 5542 5531 5520 5509 5497 5479 5457 5448 5456 5453 5461 5464 5470 5477 5488 5506 5517 5517 5532 5534 5548 5557 5553 5560 5573 5583 5594 5592 5592 5606 5617 5619 5615 5623 5633 5637 5644
5581 5577 5572 5565 5557 5547 5537 5530 5516 5506 5491 5470 5459 5441 5420 5426 5426 5425 5431 5437 5445 5453 5461 5472 5484 5493 5511 5524 5531 5530 5529 5540 5575 5570 5581 5572 5611 5602 5612 5606 5600 5613 5618 5622 5631
5573 5569 5563 5554 5544 5532 5519 5506 5491 5476 5461 5443 5425 5413 5401 5405 5400 5405 5405 5417 5423 5434 5444 5449 5458 5470 5479 5495 5505 5510 5530 5536 5552 5568 5563 5564 5592 5602 5602 5599 5596 5598 5608 5612 5622
5564 5559 5551 5542 5529 5515 5497 5480 5458 5443 5432 5420 5404 5390 5389 5387 5387 5388 5392 5400 5407 5415 5423 5423 5438 5446 5464 5476 5495 5510 5519 5539 5548 5557 5553 5561 5577 5587 5588 5591 5591 5594 5601 5604 5612
5555 5548 5539 5527 5514 5496 5476 5456 5429 5412 5397 5379 5369 5366 5370 5379 5382 5376 5377 5383 5391 5398 5404 5411 5421 5436 5468 5478 5472 5498 5503 5518 5538 5548 5546 5560 5562 5572 5582 5576 5580 5584 5591 5598 5609
5546 5537 5527 5514 5495 5474 5449 5420 5398 5383 5364 5369 5369 5368 5365 5363 5364 5366 5364 5362 5369 5367 5386 5395 5410 5426 5436 5456 5461 5467 5492 5502 5515 5530 5533 5543 5555 5564 5568 5575 5576 5580 5584 5590 5597
5537 5528 5519 5502 5485 5460 5434 5413 5399 5377 5355 5363 5356 5354 5349 5354 5348 5347 5350 5351 5350 5351 5360 5370 5408 5418 5420 5425 5439 5452 5473 5495 5516 5519 5524 5537 5535 5542 5555 5567 5563 5573 5581 5583 5591
5529 5519 5508 5497 5478 5448 5426 5409 5390 5376 5335 5352 5352 5346 5344 5345 5337 5340 5342 5340 5342 5340 5342 5364 5383 5401 5403 5408 5423 5435 5458 5471 5493 5508 5514 5522 5534 5538 5549 5560 5563 5551 5562 5571 5576
5519 5507 5491 5473 5447 5434 5416 5404 5386 5370 5304 5336 5336 5337 5330 5323 5323 5331 5329 5335 5319 5328 5338 5355 5365 5388 5398 5423 5422 5442 5466 5472 5481 5496 5504 5522 5525 5523 5543 5541 5549 5529 5540 5557 5568
5512 5500 5485 5473 5449 5424 5416 5404 5386 5354 5264 5328 5321 5316 5323 5325 5325 5326 5321 5328 5332 5335 5350 5347 5356 5373 5379 5398 5417 5421 5448 5466 5473 5491 5505 5514 5523 5487 5526 5541 5513 5519 5530 5544 5552
5505 5491 5477 5461 5436 5424 5410 5393 5353 5310 5322 5320 5316 5314 5313 5305 5318 5314 5304 5302 5303 5317 5326 5351 5353 5363 5369 5396 5419 5423 5430 5470 5475 5489 5500 5504 5513 5451 5452 5465 5505 5513 5516 5521 5524
5499 5482 5467 5449 5431 5422 5412 5389 5337 5321 5315 5319 5312 5312 5301 5297 5302 5301 5299 5289 5308 5303 5312 5322 5329 5343 5352 5363 5388 5408 5437 5463 5482 5478 5446 5493 5499 5432 5433 5456 5474 5479 5490 5500 5504
5495 5475 5465 5445 5427 5418 5394 5360 5309 5310 5311 5312 5315 5298 5294 5293 5280 5286 5278 5283 5290 5299 5299 5313 5323 5336 5352 5357 5369 5395 5420 5417 5434 5460 5465 5445 5410 5418 5434 5441 5453 5457 5466 5479 5484
5484 5465 5457 5437 5420 5404 5376 5345 5317 5318 5315 5312 5289 5285 5273 5277 5275 5271 5271 5283 5292 5299 5307 5310 5317 5333 5343 5361 5370 5373 5388 5412 5434 5451 5462 5422 5411 5409 5417 5427 5438 5442 5453 5458 5466
5474 5451 5444 5433 5416 5395 5347 5326 5332 5325 5316 5307 5291 5281 5273 5264 5262 5257 5264 5282 5290 5300 5308 5301 5299 5321 5341 5332 5334 5361 5363 5377 5395 5417 5443 5436 5391 5386 5398 5418 5428 5432 5441 5445 5451
5463 5440 5440 5428 5408 5356 5341 5334 5334 5326 5317 5309 5296 5288 5272 5265 5257 5258 5269 5266 5284 5287 5297 5307 5297 5297 5311 5327 5344 5344 5341 5355 5382 5403 5395 5401 5373 5378 5395 5405 5413 5418 5425 5427 5431
5452 5436 5437 5422 5378 5348 5339 5338 5333 5328 5318 5310 5296 5284 5278 5264 5247 5245 5267 5281 5282 5291 5293 5298 5287 5300 5313 5328 5344 5342 5339 5352 5367 5376 5366 5384 5354 5371 5380 5390 5396 5405 5407 5409 5413
5446 5428 5416 5396 5368 5357 5339 5337 5327 5328 5317 5307 5298 5292 5280 5271 5267 5245 5266 5280 5280 5284 5308 5298 5268 5276 5286 5299 5309 5321 5331 5339 5358 5365 5359 5355 5364 5359 5367 5374 5380 5387 5394 5397 5401
5436 5413 5398 5387 5379 5356 5345 5333 5331 5320 5318 5307 5300 5295 5266 5242 5253 5259 5266 5266 5276 5280 5273 5269 5265 5273 5306 5316 5317 5309 5320 5327 5339 5343 5353 5357 5360 5359 5362 5365 5369 5372 5382 5386 5392
5429 5406 5389 5370 5372 5358 5342 5328 5332 5324 5316 5309 5287 5299 5255 5249 5261 5269 5255 5230 5238 5261 5259 5260 5263 5277 5283 5313 5319 5307 5309 5323 5324 5326 5334 5347 5346 5350 5354 5359 5363 5367 5372 5373 5375
5431 5416 5395 5384 5372 5351 5330 5323 5329 5323 5321 5313 5301 5275 5265 5278 5274 5273 5265 5264 5256 5256 5248 5225 5241 5245 5255 5293 5307 5307 5288 5303 5302 5304 5312 5326 5337 5339 5345 5350 5353 5358 5364 5368 5371